Dewpoint
55 54 54 54 54 54 54 54 53 53 53 54 55 55 56 56 55 54 54 55 54 54 56 57 56 57 54 46 36 44 53 55 55 54 50 49 47 39 35 33 31 32 32 32 47 48 47
54 54 54 54 54 54 54 54 53 53 52 53 54 54 56 56 56 55 55 54 54 54 55 55 56 56 50 40 42 40 43 54 53 52 48 49 47 41 37 33 31 30 31 33 42 45 47
54 54 54 53 54 56 55 54 55 54 52 52 53 54 55 56 56 55 54 54 53 54 54 55 55 51 46 42 44 41 46 50 50 52 49 48 46 42 41 34 33 30 29 32 35 42 43
54 54 54 54 54 54 54 55 54 53 52 52 53 53 54 56 56 55 54 53 55 55 55 55 54 49 43 45 39 39 43 49 50 51 50 46 44 43 42 37 32 28 28 27 31 37 39
54 54 54 54 54 54 54 54 54 53 52 52 53 54 55 55 55 55 54 54 55 55 54 55 49 45 35 45 38 36 36 42 48 48 49 43 43 41 37 30 28 29 25 26 30 35 34
54 54 54 54 53 54 54 54 54 53 53 53 53 54 55 55 55 55 55 54 53 51 49 47 46 40 38 35 38 36 36 44 43 46 45 42 39 34 33 28 24 26 25 23 27 33 33
54 54 54 54 54 53 54 54 54 53 54 53 54 54 55 54 55 54 50 46 41 40 44 37 36 36 36 38 39 39 39 39 40 42 38 37 34 29 30 29 25 23 22 20 21 31 31
53 53 54 53 53 53 53 53 53 53 54 54 54 54 54 54 53 54 49 42 41 42 37 38 38 37 38 40 37 38 38 35 36 34 36 34 31 33 34 32 26 24 24 21 25 30 29
52 53 52 52 52 53 53 53 53 53 53 54 54 54 53 52 52 49 43 43 45 44 36 35 36 36 38 39 35 36 37 35 34 33 33 34 33 32 31 28 24 24 23 20 22 26 25
51 53 53 54 54 54 54 54 53 53 52 54 54 53 52 51 48 44 44 46 46 43 33 28 32 36 38 39 35 38 38 35 33 31 32 32 33 30 29 27 25 22 26 24 25 21 17
52 53 54 54 54 54 54 54 53 53 53 54 54 52 51 50 45 43 45 45 42 40 12 26 32 38 36 34 35 36 38 36 32 32 30 29 31 30 29 28 28 23 27 25 24 23 20
52 53 54 54 54 53 53 54 54 53 54 54 52 51 50 48 46 45 45 43 43 28 9 25 31 31 31 32 33 36 36 36 35 32 31 30 33 32 31 30 29 28 24 24 28 27 20
54 53 53 54 53 53 52 53 54 53 54 53 51 51 47 43 45 46 45 42 30 20 24 25 28 30 28 27 29 32 32 30 29 25 25 29 30 32 32 30 29 28 26 21 19 18 19
53 53 53 53 53 52 52 52 53 54 54 53 50 49 48 45 48 46 43 35 22 23 27 30 29 28 26 27 27 29 27 26 28 26 25 24 19 30 32 30 28 25 26 24 16 19 17
53 53 53 53 53 52 52 52 52 53 54 51 49 46 43 45 47 45 40 27 24 29 30 29 29 24 21 25 22 24 24 25 25 26 21 19 23 31 31 30 28 25 22 22 16 22 15
52 53 53 53 52 52 52 51 52 53 54 52 44 44 45 43 45 44 34 29 29 32 31 30 25 22 18 18 21 21 21 24 25 24 22 21 17 28 31 31 29 23 22 17 21 14 11
52 52 53 53 52 52 52 50 51 52 53 52 45 40 45 44 42 37 26 26 29 31 30 28 26 24 21 18 18 16 18 25 27 23 22 21 21 23 28 28 24 21 18 18 18 17 11
51 50 52 53 52 52 52 50 51 52 53 49 45 36 45 44 34 29 24 25 33 27 29 28 28 27 22 19 18 18 22 26 29 28 21 21 20 19 22 24 25 24 19 17 18 11 11
50 50 51 52 52 52 51 51 50 51 52 45 41 38 43 41 21 25 27 26 26 24 24 23 24 24 23 20 16 21 22 33 31 29 24 23 17 15 17 21 21 20 22 20 17 20 13
50 50 51 52 53 52 52 51 50 50 51 45 37 32 40 39 32 29 25 25 24 28 25 22 21 19 19 16 18 17 17 31 31 29 35 29 19 15 16 13 19 18 20 22 17 18 11
52 51 52 52 52 52 52 51 50 49 50 44 38 33 35 23 32 30 28 28 25 26 26 22 22 18 17 14 15 14 16 23 31 34 27 23 19 17 16 16 14 16 20 21 19 17 14
50 50 50 51 52 52 52 51 50 50 51 43 32 32 35 30 30 31 33 27 27 27 25 25 23 26 19 16 20 22 23 19 17 27 25 22 16 17 13 13 13 11 14 16 21 22 20
50 48 47 47 49 51 52 51 50 50 49 41 40 39 33 29 28 28 26 26 28 27 27 27 26 27 26 27 26 28 27 24 22 18 22 20 18 16 13 20 22 20 21 15 13 20 21
50 48 47 48 48 49 51 51 50 50 48 43 42 40 33 25 26 26 27 27 27 29 24 29 28 27 29 31 32 31 31 29 29 26 20 20 16 15 16 20 15 19 26 25 16 14 19
50 50 49 49 49 49 49 50 51 49 48 43 43 41 36 29 26 23 22 23 26 30 29 30 30 30 33 33 29 25 24 26 29 29 27 22 20 19 20 22 21 22 24 24 21 20 22
51 50 49 49 49 49 48 49 50 50 48 43 43 44 39 34 27 22 20 21 23 25 29 31 34 34 35 32 29 22 17 18 19 27 27 27 23 21 22 20 19 22 25 25 26 19 27
52 52 51 51 50 50 49 49 49 50 49 44 42 44 40 35 35 29 22 22 29 28 26 33 33 33 35 31 28 25 21 20 18 22 24 25 24 21 20 21 23 24 23 26 19 18 28
49 49 50 51 52 51 51 50 50 49 50 45 41 46 40 36 37 34 31 28 30 32 24 29 29 31 32 29 28 27 22 22 21 23 25 24 23 23 22 21 18 24 26 23 25 29 29
46 46 46 47 48 49 51 52 51 51 50 48 42 45 45 41 35 40 38 37 35 35 34 32 27 31 33 29 29 27 25 26 23 20 27 23 24 24 24 24 26 26 26 29 31 30 30
Lifted_Index
10 10 10 10 10 10 9 10 10 10 10 9 9 8 7 6 6 5 4 4 3 2 1 0 -0 -0 0 1 2 2 1 -0 -0 0 1 1 2 3 4 4 5 5 5 4 2 1 0
9 9 10 10 9 9 9 9 9 10 10 9 9 8 7 6 5 5 4 4 3 3 2 1 1 0 1 1 2 2 1 -0 -0 0 1 1 2 3 4 4 5 5 4 4 3 1 1
9 9 9 9 9 9 9 9 9 9 9 9 9 8 7 6 5 5 5 5 4 3 2 2 1 1 1 1 2 2 1 -0 -0 0 1 1 2 3 3 4 4 4 4 4 4 3 2
9 9 9 9 9 9 9 9 9 9 9 9 8 8 7 6 5 5 5 5 5 4 3 2 2 2 2 2 2 2 1 -0 -1 -1 0 1 2 2 3 3 4 4 4 4 4 4 3
9 9 9 9 9 9 9 8 8 9 9 9 8 8 7 6 6 6 6 5 5 4 3 2 2 2 2 2 2 2 2 0 -1 -1 -1 0 1 1 2 3 3 3 4 4 4 4 4
9 9 9 9 9 9 9 8 8 8 9 8 8 7 7 6 6 6 6 5 4 4 3 3 2 2 2 2 2 2 2 1 -0 -1 -0 0 1 1 2 2 3 3 3 4 4 4 4
9 9 9 9 9 9 9 9 8 8 8 8 8 7 7 7 7 7 6 5 5 4 4 3 3 2 2 2 2 2 2 1 0 -0 -0 0 0 1 2 2 2 3 3 4 4 3 3
9 9 9 9 9 9 9 9 9 8 8 8 8 8 8 7 7 7 6 6 6 5 4 3 3 2 2 2 2 2 2 1 0 0 0 0 0 1 2 2 2 3 3 4 4 3 3
10 9 9 9 9 9 9 9 9 9 9 8 8 8 8 8 8 7 7 6 6 5 4 4 3 3 2 2 2 2 2 1 1 1 0 0 0 1 1 2 3 3 3 3 3 3 3
10 9 9 9 9 9 8 9 9 9 9 8 8 8 9 9 8 7 7 7 7 6 4 4 3 3 2 2 2 2 2 2 1 1 1 1 1 1 2 2 3 3 3 3 3 3 4
10 9 9 9 8 8 8 8 8 8 8 8 9 9 9 9 8 7 7 7 7 5 4 4 4 3 3 2 2 2 2 2 1 1 1 1 1 1 2 2 2 2 2 2 3 3 4
9 9 9 9 9 9 9 8 8 8 8 8 9 9 9 8 7 7 8 7 6 4 3 4 4 3 3 3 2 2 2 2 2 1 1 1 2 2 2 2 2 2 2 2 3 3 3
9 9 9 9 9 9 9 9 8 8 8 8 8 8 8 8 7 8 7 6 4 4 4 4 4 4 3 2 2 2 2 1 1 1 1 1 2 2 2 2 1 2 2 2 2 2 2
9 9 9 9 9 9 9 9 9 8 8 8 8 8 8 8 8 7 6 4 4 4 5 5 4 4 3 3 2 2 2 1 1 1 1 1 2 2 1 1 1 1 1 1 1 1 2
9 9 9 9 9 9 9 9 9 8 8 8 7 7 7 7 7 6 5 4 4 5 5 5 4 4 4 3 3 2 2 2 2 2 2 2 1 1 1 1 1 1 1 1 1 1 2
9 9 9 9 9 9 9 10 9 8 8 7 7 6 6 7 7 5 4 3 4 5 5 5 4 4 4 4 4 3 3 2 2 2 2 2 2 2 1 1 1 1 1 1 1 1 1
9 9 9 9 9 9 9 10 9 9 8 7 6 5 6 7 6 5 4 4 4 5 5 4 4 4 4 4 4 4 3 3 3 3 3 3 2 2 2 2 1 1 1 1 1 1 1
9 9 9 9 9 9 9 10 9 9 8 7 6 5 6 6 6 5 4 5 5 5 5 4 4 4 4 4 4 4 4 4 4 4 4 3 3 2 2 2 2 2 2 2 2 2 1
9 9 9 9 9 9 9 10 10 9 9 8 6 5 6 6 5 5 5 5 5 5 5 4 4 4 4 4 4 4 4 4 5 5 5 4 3 2 2 2 3 3 3 3 2 2 2
9 9 9 9 9 9 9 10 10 10 9 9 7 5 5 5 5 5 5 5 5 5 5 5 5 4 4 4 4 4 4 5 5 5 6 5 4 3 2 3 3 3 3 3 3 3 2
10 10 9 9 9 9 9 10 10 10 10 9 7 6 5 6 6 6 5 5 5 5 5 5 5 5 5 4 4 4 5 5 5 6 6 6 4 4 4 4 4 3 3 4 4 3 3
10 10 10 10 9 9 9 10 10 10 10 9 7 6 6 6 6 6 6 5 5 5 5 5 5 5 5 5 5 5 5 5 5 6 6 5 5 4 4 4 4 3 3 3 4 3 3
10 10 10 10 10 9 9 9 10 10 10 9 8 8 7 6 6 6 6 6 5 5 5 5 5 5 5 6 6 6 6 6 6 6 6 5 5 4 3 4 4 3 3 4 4 4 4
10 10 10 10 10 10 9 9 9 10 10 10 9 9 8 7 6 6 6 6 6 6 6 6 5 5 6 6 7 7 7 6 6 6 6 6 5 5 4 3 3 3 4 4 4 4 4
9 9 10 10 10 10 9 9 9 10 10 10 10 9 8 7 7 6 6 6 6 6 6 6 5 5 6 6 7 7 7 6 6 6 6 6 6 5 4 3 3 4 5 5 5 5 5
8 8 8 9 9 9 9 9 9 9 10 10 10 10 9 8 8 7 7 7 7 6 6 6 6 6 6 6 6 6 6 7 7 6 6 6 6 6 5 4 4 5 6 6 5 5 5
7 7 7 8 8 8 8 9 9 9 9 9 9 10 10 10 9 9 8 7 7 7 6 6 6 6 7 7 6 6 7 7 7 7 7 7 6 6 5 4 4 5 6 6 6 6 6
7 7 7 7 7 7 7 8 8 8 8 9 9 9 10 10 10 10 9 9 8 7 7 7 7 7 7 7 7 7 8 8 7 7 7 7 6 6 6 5 5 6 7 7 7 7 7
7 7 7 7 7 7 7 7 7 7 8 8 9 9 9 10 10 10 10 9 8 8 7 7 7 8 8 8 8 8 8 8 8 7 7 7 7 6 6 6 6 6 7 7 7 8 8